Time,TemperatureF,DewpointF,PressureIn,WindDirection,WindDirectionDegrees,WindSpeedMPH,WindSpeedGustMPH,Humidity,HourlyPrecipIn,Conditions,Clouds,dailyrainin,SoftwareType,DateUTC
2013-03-16 00:00:00,18.1,16.0,29.76,NNW,337,7.0,10.0,86,0.00,,,0.00,Rainwise IP-100,2013-03-16 04:00:00,
2013-03-16 00:01:00,18.1,16.0,29.76,SW,225,2.0,10.0,86,0.00,,,0.00,Rainwise IP-100,2013-03-16 04:01:00,
2013-03-16 00:03:00,18.1,16.0,29.76,WSW,247,4.0,8.0,86,0.00,,,0.00,Rainwise IP-100,2013-03-16 04:03:00,
2013-03-16 00:04:00,18.2,16.0,29.76,West,270,2.0,8.0,86,0.00,,,0.00,Rainwise IP-100,2013-03-16 04:04:00,
2013-03-16 00:09:00,18.1,16.0,29.77,East,90,0.0,2.0,87,0.00,,,0.00,Rainwise IP-100,2013-03-16 04:09:00,
2013-03-16 00:14:00,17.9,16.0,29.77,SW,225,1.0,2.0,87,0.00,,,0.00,Rainwise IP-100,2013-03-16 04:14:00,
2013-03-16 00:19:00,17.7,16.0,29.77,SW,225,2.0,3.0,87,0.00,,,0.00,Rainwise IP-100,2013-03-16 04:19:00,
2013-03-16 00:24:00,17.7,16.0,29.77,SSE,157,3.0,4.0,89,0.00,,,0.00,Rainwise IP-100,2013-03-16 04:24:00,
2013-03-16 00:29:00,17.7,16.0,29.77,SW,225,0.0,7.0,89,0.00,,,0.00,Rainwise IP-100,2013-03-16 04:29:00,
2013-03-16 00:34:00,17.7,16.0,29.77,WSW,247,2.0,6.0,90,0.00,,,0.00,Rainwise IP-100,2013-03-16 04:34:00,
2013-03-16 00:39:00,17.8,16.0,29.78,North,360,2.0,7.0,90,0.00,,,0.00,Rainwise IP-100,2013-03-16 04:39:00,
2013-03-16 00:44:00,17.9,16.0,29.78,WNW,292,3.0,7.0,90,0.00,,,0.00,Rainwise IP-100,2013-03-16 04:44:00,
2013-03-16 00:49:00,17.9,16.0,29.78,West,270,2.0,6.0,90,0.00,,,0.00,Rainwise IP-100,2013-03-16 04:49:00,
2013-03-16 00:54:00,17.9,16.0,29.78,NW,315,2.0,3.0,90,0.00,,,0.00,Rainwise IP-100,2013-03-16 04:54:00,
2013-03-16 01:00:00,17.8,16.0,29.78,WSW,247,2.0,3.0,90,0.00,,,0.00,Rainwise IP-100,2013-03-16 05:00:00,
2013-03-16 01:05:00,17.8,16.0,29.78,North,360,3.0,6.0,90,0.00,,,0.00,Rainwise IP-100,2013-03-16 05:05:00,
2013-03-16 01:10:00,17.8,16.0,29.78,SSE,157,1.0,5.0,90,0.00,,,0.00,Rainwise IP-100,2013-03-16 05:10:00,
2013-03-16 01:15:00,17.8,16.0,29.78,NW,315,3.0,7.0,88,0.00,,,0.00,Rainwise IP-100,2013-03-16 05:15:00,
2013-03-16 01:20:00,17.9,16.0,29.79,NW,315,1.0,6.0,87,0.00,,,0.00,Rainwise IP-100,2013-03-16 05:20:00,
2013-03-16 01:25:00,17.9,16.0,29.79,NW,315,2.0,7.0,86,0.00,,,0.00,Rainwise IP-100,2013-03-16 05:25:00,
2013-03-16 01:30:00,17.8,16.0,29.79,North,360,2.0,5.0,86,0.00,,,0.00,Rainwise IP-100,2013-03-16 05:30:00,
2013-03-16 01:35:00,17.7,14.0,29.79,NW,315,6.0,9.0,84,0.00,,,0.00,Rainwise IP-100,2013-03-16 05:35:00,
2013-03-16 01:40:00,17.6,14.0,29.79,WNW,292,6.0,10.0,83,0.00,,,0.00,Rainwise IP-100,2013-03-16 05:40:00,
2013-03-16 01:45:00,17.5,14.0,29.80,NW,315,4.0,9.0,83,0.00,,,0.00,Rainwise IP-100,2013-03-16 05:45:00,
2013-03-16 01:50:00,17.4,14.0,29.80,NW,315,2.0,7.0,83,0.00,,,0.00,Rainwise IP-100,2013-03-16 05:50:00,
2013-03-16 01:55:00,17.4,14.0,29.80,NW,315,2.0,9.0,83,0.00,,,0.00,Rainwise IP-100,2013-03-16 05:55:00,
2013-03-16 02:01:00,17.4,14.0,29.79,West,270,3.0,16.0,83,0.00,,,0.00,Rainwise IP-100,2013-03-16 06:01:00,
2013-03-16 02:06:00,17.3,14.0,29.79,NNW,337,3.0,11.0,82,0.00,,,0.00,Rainwise IP-100,2013-03-16 06:06:00,
2013-03-16 02:11:00,17.2,14.0,29.80,NNW,337,2.0,6.0,83,0.00,,,0.00,Rainwise IP-100,2013-03-16 06:11:00,
2013-03-16 02:16:00,17.1,14.0,29.80,West,270,4.0,9.0,83,0.00,,,0.00,Rainwise IP-100,2013-03-16 06:16:00,
2013-03-16 02:21:00,16.9,14.0,29.80,NW,315,3.0,7.0,83,0.00,,,0.00,Rainwise IP-100,2013-03-16 06:21:00,
2013-03-16 02:27:00,17.0,14.0,29.80,NW,315,1.0,10.0,82,0.00,,,0.00,Rainwise IP-100,2013-03-16 06:27:00,
2013-03-16 02:32:00,16.9,14.0,29.80,North,360,4.0,15.0,82,0.00,,,0.00,Rainwise IP-100,2013-03-16 06:32:00,
2013-03-16 02:37:00,16.9,14.0,29.81,NW,315,1.0,6.0,83,0.00,,,0.00,Rainwise IP-100,2013-03-16 06:37:00,
2013-03-16 02:42:00,16.8,14.0,29.81,NNW,337,1.0,8.0,83,0.00,,,0.00,Rainwise IP-100,2013-03-16 06:42:00,
2013-03-16 02:48:00,16.6,14.0,29.81,NW,315,3.0,6.0,84,0.00,,,0.00,Rainwise IP-100,2013-03-16 06:48:00,
2013-03-16 02:53:00,16.6,14.0,29.81,WSW,247,0.0,6.0,84,0.00,,,0.00,Rainwise IP-100,2013-03-16 06:53:00,
2013-03-16 02:58:00,16.5,14.0,29.81,North,360,2.0,5.0,84,0.00,,,0.00,Rainwise IP-100,2013-03-16 06:58:00,
2013-03-16 03:04:00,16.5,14.0,29.81,ENE,67,1.0,9.0,84,0.00,,,0.00,Rainwise IP-100,2013-03-16 07:04:00,
2013-03-16 03:09:00,16.4,14.0,29.81,West,270,2.0,4.0,85,0.00,,,0.00,Rainwise IP-100,2013-03-16 07:09:00,
2013-03-16 03:14:00,16.4,14.0,29.82,NW,315,2.0,5.0,84,0.00,,,0.00,Rainwise IP-100,2013-03-16 07:14:00,
2013-03-16 03:19:00,16.3,14.0,29.83,NW,315,2.0,7.0,84,0.00,,,0.00,Rainwise IP-100,2013-03-16 07:19:00,
2013-03-16 03:24:00,16.2,11.0,29.83,NW,315,1.0,5.0,83,0.00,,,0.00,Rainwise IP-100,2013-03-16 07:24:00,
2013-03-16 03:29:00,16.2,11.0,29.82,WSW,247,2.0,4.0,83,0.00,,,0.00,Rainwise IP-100,2013-03-16 07:29:00,
2013-03-16 03:34:00,16.1,14.0,29.82,West,270,2.0,4.0,84,0.00,,,0.00,Rainwise IP-100,2013-03-16 07:34:00,
2013-03-16 03:39:00,15.9,11.0,29.82,NNW,337,4.0,9.0,83,0.00,,,0.00,Rainwise IP-100,2013-03-16 07:39:00,
2013-03-16 03:44:00,15.9,14.0,29.82,NW,315,0.0,7.0,84,0.00,,,0.00,Rainwise IP-100,2013-03-16 07:44:00,
2013-03-16 03:49:00,15.9,11.0,29.82,NNW,337,2.0,4.0,83,0.00,,,0.00,Rainwise IP-100,2013-03-16 07:49:00,
2013-03-16 03:54:00,15.7,14.0,29.82,NW,315,2.0,4.0,84,0.00,,,0.00,Rainwise IP-100,2013-03-16 07:54:00,
2013-03-16 03:59:00,15.6,14.0,29.82,NW,315,2.0,3.0,84,0.00,,,0.00,Rainwise IP-100,2013-03-16 07:59:00,
2013-03-16 04:05:00,15.5,14.0,29.82,North,360,2.0,4.0,84,0.00,,,0.00,Rainwise IP-100,2013-03-16 08:05:00,
2013-03-16 04:10:00,15.4,14.0,29.82,NW,315,4.0,4.0,84,0.00,,,0.00,Rainwise IP-100,2013-03-16 08:10:00,
2013-03-16 04:15:00,15.4,14.0,29.82,NE,45,3.0,4.0,84,0.00,,,0.00,Rainwise IP-100,2013-03-16 08:15:00,
2013-03-16 04:20:00,15.3,14.0,29.82,West,270,0.0,6.0,84,0.00,,,0.00,Rainwise IP-100,2013-03-16 08:20:00,
2013-03-16 04:25:00,15.3,14.0,29.82,WNW,292,2.0,4.0,84,0.00,,,0.00,Rainwise IP-100,2013-03-16 08:25:00,
2013-03-16 04:30:00,15.3,14.0,29.82,NW,315,2.0,3.0,84,0.00,,,0.00,Rainwise IP-100,2013-03-16 08:30:00,
2013-03-16 04:35:00,15.3,14.0,29.82,NW,315,2.0,4.0,85,0.00,,,0.00,Rainwise IP-100,2013-03-16 08:35:00,
2013-03-16 04:40:00,15.2,14.0,29.82,NW,315,1.0,2.0,84,0.00,,,0.00,Rainwise IP-100,2013-03-16 08:40:00,
2013-03-16 04:46:00,15.2,14.0,29.82,NW,315,0.0,2.0,85,0.00,,,0.00,Rainwise IP-100,2013-03-16 08:46:00,
2013-03-16 04:51:00,15.2,14.0,29.82,NW,315,1.0,2.0,85,0.00,,,0.00,Rainwise IP-100,2013-03-16 08:51:00,
2013-03-16 04:56:00,15.1,14.0,29.82,SW,225,2.0,2.0,87,0.00,,,0.00,Rainwise IP-100,2013-03-16 08:56:00,
2013-03-16 05:02:00,15.1,14.0,29.82,West,270,0.0,2.0,88,0.00,,,0.00,Rainwise IP-100,2013-03-16 09:02:00,
2013-03-16 05:07:00,14.9,14.0,29.82,SW,225,2.0,2.0,90,0.00,,,0.00,Rainwise IP-100,2013-03-16 09:07:00,
2013-03-16 05:12:00,14.9,14.0,29.82,NW,315,2.0,2.0,91,0.00,,,0.00,Rainwise IP-100,2013-03-16 09:12:00,
2013-03-16 05:17:00,14.9,14.0,29.83,WSW,247,1.0,2.0,92,0.00,,,0.00,Rainwise IP-100,2013-03-16 09:17:00,
2013-03-16 05:23:00,14.8,14.0,29.83,West,270,0.0,4.0,91,0.00,,,0.00,Rainwise IP-100,2013-03-16 09:23:00,
2013-03-16 05:28:00,14.7,14.0,29.82,West,270,1.0,3.0,92,0.00,,,0.00,Rainwise IP-100,2013-03-16 09:28:00,
2013-03-16 05:33:00,14.6,14.0,29.83,West,270,2.0,2.0,92,0.00,,,0.00,Rainwise IP-100,2013-03-16 09:33:00,
2013-03-16 05:38:00,14.4,11.0,29.83,West,270,1.0,2.0,93,0.00,,,0.00,Rainwise IP-100,2013-03-16 09:38:00,
2013-03-16 05:43:00,14.3,11.0,29.82,WSW,247,2.0,2.0,93,0.00,,,0.00,Rainwise IP-100,2013-03-16 09:43:00,
2013-03-16 05:49:00,14.1,11.0,29.83,WSW,247,1.0,2.0,93,0.00,,,0.00,Rainwise IP-100,2013-03-16 09:49:00,
2013-03-16 05:54:00,14.1,11.0,29.83,West,270,0.0,2.0,93,0.00,,,0.00,Rainwise IP-100,2013-03-16 09:54:00,
2013-03-16 05:59:00,14.1,11.0,29.83,West,270,2.0,2.0,93,0.00,,,0.00,Rainwise IP-100,2013-03-16 09:59:00,
2013-03-16 06:04:00,13.9,11.0,29.83,SW,225,0.0,2.0,93,0.00,,,0.00,Rainwise IP-100,2013-03-16 10:04:00,
2013-03-16 06:09:00,13.8,11.0,29.83,SW,225,1.0,2.0,93,0.00,,,0.00,Rainwise IP-100,2013-03-16 10:09:00,
2013-03-16 06:14:00,13.7,11.0,29.83,SW,225,2.0,2.0,93,0.00,,,0.00,Rainwise IP-100,2013-03-16 10:14:00,
2013-03-16 06:19:00,13.5,11.0,29.83,WSW,247,2.0,2.0,93,0.00,,,0.00,Rainwise IP-100,2013-03-16 10:19:00,
2013-03-16 06:24:00,13.3,11.0,29.83,WSW,247,1.0,2.0,93,0.00,,,0.00,Rainwise IP-100,2013-03-16 10:24:00,
2013-03-16 06:29:00,13.1,11.0,29.83,WSW,247,1.0,2.0,93,0.00,,,0.00,Rainwise IP-100,2013-03-16 10:29:00,
2013-03-16 06:34:00,12.9,11.0,29.82,SW,225,0.0,2.0,93,0.00,,,0.00,Rainwise IP-100,2013-03-16 10:34:00,
2013-03-16 06:39:00,12.7,11.0,29.83,SW,225,1.0,2.0,93,0.00,,,0.00,Rainwise IP-100,2013-03-16 10:39:00,
2013-03-16 06:44:00,12.5,11.0,29.83,SW,225,0.0,2.0,93,0.00,,,0.00,Rainwise IP-100,2013-03-16 10:44:00,
2013-03-16 06:50:00,12.4,11.0,29.83,SW,225,0.0,1.0,93,0.00,,,0.00,Rainwise IP-100,2013-03-16 10:50:00,
2013-03-16 06:55:00,12.1,11.0,29.83,SW,225,0.0,0.0,93,0.00,,,0.00,Rainwise IP-100,2013-03-16 10:55:00,
2013-03-16 07:00:00,11.9,11.0,29.83,SW,225,0.0,1.0,93,0.00,,,0.00,Rainwise IP-100,2013-03-16 11:00:00,
2013-03-16 07:05:00,11.7,11.0,29.83,SW,225,0.0,1.0,93,0.00,,,0.00,Rainwise IP-100,2013-03-16 11:05:00,
2013-03-16 07:10:00,11.5,11.0,29.83,SW,225,0.0,0.0,93,0.00,,,0.00,Rainwise IP-100,2013-03-16 11:10:00,
2013-03-16 07:15:00,11.5,11.0,29.83,SW,225,2.0,2.0,93,0.00,,,0.00,Rainwise IP-100,2013-03-16 11:15:00,
2013-03-16 07:20:00,11.7,11.0,29.83,West,270,0.0,2.0,93,0.00,,,0.00,Rainwise IP-100,2013-03-16 11:20:00,
2013-03-16 07:25:00,11.7,11.0,29.83,West,270,2.0,2.0,93,0.00,,,0.00,Rainwise IP-100,2013-03-16 11:25:00,
2013-03-16 07:30:00,11.7,11.0,29.83,West,270,0.0,2.0,93,0.00,,,0.00,Rainwise IP-100,2013-03-16 11:30:00,
2013-03-16 07:35:00,11.6,11.0,29.83,West,270,0.0,0.0,93,0.00,,,0.00,Rainwise IP-100,2013-03-16 11:35:00,
2013-03-16 07:40:00,11.4,11.0,29.83,West,270,0.0,0.0,93,0.00,,,0.00,Rainwise IP-100,2013-03-16 11:40:00,
2013-03-16 07:45:00,11.3,11.0,29.83,West,270,0.0,2.0,93,0.00,,,0.00,Rainwise IP-100,2013-03-16 11:45:00,
2013-03-16 07:51:00,11.5,11.0,29.83,West,270,0.0,2.0,93,0.00,,,0.00,Rainwise IP-100,2013-03-16 11:51:00,
2013-03-16 07:56:00,11.7,11.0,29.83,West,270,0.0,1.0,93,0.00,,,0.00,Rainwise IP-100,2013-03-16 11:56:00,
2013-03-16 08:01:00,11.9,11.0,29.83,West,270,0.0,2.0,93,0.00,,,0.00,Rainwise IP-100,2013-03-16 12:01:00,
2013-03-16 08:06:00,12.1,11.0,29.83,West,270,1.0,2.0,93,0.00,,,0.00,Rainwise IP-100,2013-03-16 12:06:00,
2013-03-16 08:11:00,12.4,11.0,29.83,WSW,247,2.0,2.0,93,0.00,,,0.00,Rainwise IP-100,2013-03-16 12:11:00,
2013-03-16 08:16:00,12.7,11.0,29.83,West,270,2.0,4.0,93,0.00,,,0.00,Rainwise IP-100,2013-03-16 12:16:00,
2013-03-16 08:21:00,12.9,11.0,29.83,NW,315,2.0,4.0,92,0.00,,,0.00,Rainwise IP-100,2013-03-16 12:21:00,
2013-03-16 08:26:00,13.2,11.0,29.83,SW,225,4.0,4.0,92,0.00,,,0.00,Rainwise IP-100,2013-03-16 12:26:00,
2013-03-16 08:31:00,13.4,11.0,29.83,North,360,2.0,4.0,90,0.00,,,0.00,Rainwise IP-100,2013-03-16 12:31:00,
2013-03-16 08:36:00,13.7,11.0,29.83,NW,315,2.0,2.0,90,0.00,,,0.00,Rainwise IP-100,2013-03-16 12:36:00,
2013-03-16 08:42:00,13.7,11.0,29.83,West,270,0.0,3.0,88,0.00,,,0.00,Rainwise IP-100,2013-03-16 12:42:00,
2013-03-16 08:47:00,13.9,11.0,29.84,SW,225,1.0,2.0,89,0.00,,,0.00,Rainwise IP-100,2013-03-16 12:47:00,
2013-03-16 08:53:00,13.9,11.0,29.84,WSW,247,1.0,4.0,88,0.00,,,0.00,Rainwise IP-100,2013-03-16 12:53:00,
2013-03-16 08:58:00,14.2,11.0,29.84,SW,225,1.0,4.0,88,0.00,,,0.00,Rainwise IP-100,2013-03-16 12:58:00,
2013-03-16 09:03:00,14.5,14.0,29.84,West,270,2.0,2.0,87,0.00,,,0.00,Rainwise IP-100,2013-03-16 13:03:00,
2013-03-16 09:08:00,14.8,11.0,29.84,West,270,2.0,3.0,83,0.00,,,0.00,Rainwise IP-100,2013-03-16 13:08:00,
2013-03-16 09:13:00,14.8,14.0,29.84,West,270,0.0,4.0,85,0.00,,,0.00,Rainwise IP-100,2013-03-16 13:13:00,
2013-03-16 09:18:00,15.1,11.0,29.84,NW,315,3.0,3.0,83,0.00,,,0.00,Rainwise IP-100,2013-03-16 13:18:00,
2013-03-16 09:23:00,14.9,11.0,29.84,West,270,1.0,4.0,80,0.00,,,0.00,Rainwise IP-100,2013-03-16 13:23:00,
2013-03-16 09:28:00,14.9,11.0,29.84,SW,225,1.0,3.0,79,0.00,,,0.00,Rainwise IP-100,2013-03-16 13:28:00,
2013-03-16 09:33:00,15.1,11.0,29.85,WSW,247,0.0,4.0,78,0.00,,,0.00,Rainwise IP-100,2013-03-16 13:33:00,
2013-03-16 09:38:00,15.6,11.0,29.85,WSW,247,2.0,5.0,75,0.00,,,0.00,Rainwise IP-100,2013-03-16 13:38:00,
2013-03-16 09:43:00,16.1,11.0,29.85,West,270,1.0,3.0,74,0.00,,,0.00,Rainwise IP-100,2013-03-16 13:43:00,
2013-03-16 09:49:00,16.1,11.0,29.85,WSW,247,1.0,4.0,73,0.00,,,0.00,Rainwise IP-100,2013-03-16 13:49:00,
2013-03-16 09:54:00,16.9,11.0,29.84,South,180,4.0,5.0,69,0.00,,,0.00,Rainwise IP-100,2013-03-16 13:54:00,
2013-03-16 09:59:00,17.0,11.0,29.84,SSE,157,3.0,4.0,65,0.00,,,0.00,Rainwise IP-100,2013-03-16 13:59:00,
2013-03-16 10:04:00,16.7,11.0,29.84,East,90,1.0,4.0,68,0.00,,,0.00,Rainwise IP-100,2013-03-16 14:04:00,
2013-03-16 10:09:00,16.9,11.0,29.84,WNW,292,2.0,2.0,70,0.00,,,0.00,Rainwise IP-100,2013-03-16 14:09:00,
2013-03-16 10:14:00,17.2,11.0,29.84,WSW,247,1.0,4.0,71,0.00,,,0.00,Rainwise IP-100,2013-03-16 14:14:00,
2013-03-16 10:19:00,17.8,11.0,29.84,South,180,1.0,7.0,72,0.00,,,0.00,Rainwise IP-100,2013-03-16 14:19:00,
2013-03-16 10:24:00,17.5,11.0,29.84,West,270,1.0,7.0,68,0.00,,,0.00,Rainwise IP-100,2013-03-16 14:24:00,
2013-03-16 10:29:00,18.5,11.0,29.84,SW,225,2.0,4.0,68,0.00,,,0.00,Rainwise IP-100,2013-03-16 14:29:00,
2013-03-16 10:34:00,18.9,11.0,29.84,NW,315,1.0,7.0,68,0.00,,,0.00,Rainwise IP-100,2013-03-16 14:34:00,
2013-03-16 10:39:00,19.4,11.0,29.84,SSE,157,1.0,5.0,64,0.00,,,0.00,Rainwise IP-100,2013-03-16 14:39:00,
2013-03-16 10:44:00,19.6,11.0,29.85,WSW,247,1.0,5.0,66,0.00,,,0.01,Rainwise IP-100,2013-03-16 14:44:00,
2013-03-16 10:50:00,19.4,11.0,29.85,NNE,22,2.0,4.0,67,0.06,,,0.01,Rainwise IP-100,2013-03-16 14:50:00,
2013-03-16 10:55:00,18.9,11.0,29.85,NW,315,1.0,6.0,68,0.00,,,0.01,Rainwise IP-100,2013-03-16 14:55:00,
2013-03-16 11:00:00,18.5,11.0,29.84,NW,315,1.0,5.0,68,0.06,,,0.02,Rainwise IP-100,2013-03-16 15:00:00,
2013-03-16 11:05:00,19.2,11.0,29.84,NW,315,0.0,5.0,67,0.06,,,0.02,Rainwise IP-100,2013-03-16 15:05:00,
2013-03-16 11:10:00,20.0,11.0,29.84,NW,315,0.0,3.0,63,0.06,,,0.03,Rainwise IP-100,2013-03-16 15:10:00,
2013-03-16 11:15:00,19.5,11.0,29.84,WSW,247,2.0,6.0,65,0.06,,,0.03,Rainwise IP-100,2013-03-16 15:15:00,
2013-03-16 11:20:00,19.2,11.0,29.84,NW,315,4.0,6.0,66,0.00,,,0.03,Rainwise IP-100,2013-03-16 15:20:00,
2013-03-16 11:25:00,19.8,11.0,29.84,NW,315,2.0,6.0,64,0.06,,,0.04,Rainwise IP-100,2013-03-16 15:25:00,
2013-03-16 11:30:00,19.3,11.0,29.84,NW,315,1.0,5.0,65,0.06,,,0.04,Rainwise IP-100,2013-03-16 15:30:00,
2013-03-16 11:35:00,20.2,11.0,29.84,West,270,2.0,6.0,66,0.00,,,0.04,Rainwise IP-100,2013-03-16 15:35:00,
2013-03-16 11:40:00,20.3,11.0,29.85,East,90,1.0,5.0,64,0.00,,,0.05,Rainwise IP-100,2013-03-16 15:40:00,
2013-03-16 11:45:00,20.5,11.0,29.85,West,270,1.0,7.0,66,0.06,,,0.05,Rainwise IP-100,2013-03-16 15:45:00,
2013-03-16 11:51:00,21.8,14.0,29.85,North,360,4.0,4.0,63,0.06,,,0.05,Rainwise IP-100,2013-03-16 15:51:00,
2013-03-16 11:56:00,22.0,14.0,29.85,East,90,2.0,7.0,64,0.00,,,0.05,Rainwise IP-100,2013-03-16 15:56:00,
2013-03-16 12:01:00,22.1,14.0,29.84,ESE,112,1.0,9.0,63,0.00,,,0.05,Rainwise IP-100,2013-03-16 16:01:00,
2013-03-16 12:06:00,21.8,14.0,29.83,SW,225,0.0,10.0,63,0.00,,,0.05,Rainwise IP-100,2013-03-16 16:06:00,
2013-03-16 12:11:00,22.5,14.0,29.83,North,360,5.0,7.0,63,0.00,,,0.05,Rainwise IP-100,2013-03-16 16:11:00,
2013-03-16 12:17:00,22.1,11.0,29.83,SW,225,2.0,7.0,62,0.00,,,0.05,Rainwise IP-100,2013-03-16 16:17:00,
2013-03-16 12:22:00,22.1,14.0,29.83,NW,315,2.0,6.0,65,0.00,,,0.05,Rainwise IP-100,2013-03-16 16:22:00,
2013-03-16 12:27:00,22.6,11.0,29.83,SW,225,3.0,7.0,59,0.00,,,0.05,Rainwise IP-100,2013-03-16 16:27:00,
2013-03-16 12:32:00,23.2,11.0,29.83,NW,315,1.0,4.0,59,0.00,,,0.05,Rainwise IP-100,2013-03-16 16:32:00,
2013-03-16 12:37:00,23.2,11.0,29.83,WSW,247,4.0,6.0,60,0.06,,,0.06,Rainwise IP-100,2013-03-16 16:37:00,
2013-03-16 12:42:00,22.5,14.0,29.83,South,180,1.0,6.0,63,0.06,,,0.06,Rainwise IP-100,2013-03-16 16:42:00,
2013-03-16 12:47:00,23.1,11.0,29.83,SW,225,2.0,6.0,59,0.00,,,0.06,Rainwise IP-100,2013-03-16 16:47:00,
2013-03-16 12:53:00,23.2,11.0,29.83,NW,315,7.0,9.0,60,0.00,,,0.06,Rainwise IP-100,2013-03-16 16:53:00,
2013-03-16 12:58:00,22.7,11.0,29.83,North,360,1.0,8.0,60,0.00,,,0.06,Rainwise IP-100,2013-03-16 16:58:00,
2013-03-16 13:03:00,23.2,11.0,29.83,West,270,2.0,4.0,60,0.00,,,0.06,Rainwise IP-100,2013-03-16 17:03:00,
2013-03-16 13:08:00,22.7,11.0,29.83,North,360,3.0,7.0,59,0.00,,,0.06,Rainwise IP-100,2013-03-16 17:08:00,
2013-03-16 13:13:00,22.2,11.0,29.83,North,360,5.0,9.0,61,0.00,,,0.06,Rainwise IP-100,2013-03-16 17:13:00,
2013-03-16 13:18:00,22.6,11.0,29.83,North,360,9.0,9.0,62,0.00,,,0.06,Rainwise IP-100,2013-03-16 17:18:00,
2013-03-16 13:23:00,22.9,11.0,29.83,East,90,6.0,11.0,59,0.00,,,0.06,Rainwise IP-100,2013-03-16 17:23:00,
2013-03-16 13:28:00,22.6,11.0,29.83,NNE,22,2.0,9.0,61,0.00,,,0.06,Rainwise IP-100,2013-03-16 17:28:00,
2013-03-16 13:33:00,22.4,11.0,29.84,SW,225,3.0,7.0,60,0.00,,,0.06,Rainwise IP-100,2013-03-16 17:33:00,
2013-03-16 13:38:00,22.2,14.0,29.84,NNW,337,2.0,6.0,63,0.00,,,0.06,Rainwise IP-100,2013-03-16 17:38:00,
2013-03-16 13:43:00,22.6,11.0,29.83,NW,315,4.0,11.0,61,0.00,,,0.06,Rainwise IP-100,2013-03-16 17:43:00,
2013-03-16 13:48:00,22.6,11.0,29.83,West,270,1.0,7.0,60,0.00,,,0.06,Rainwise IP-100,2013-03-16 17:48:00,
2013-03-16 13:54:00,22.7,11.0,29.83,NW,315,2.0,4.0,61,0.00,,,0.06,Rainwise IP-100,2013-03-16 17:54:00,
2013-03-16 13:59:00,22.6,11.0,29.83,SW,225,4.0,8.0,61,0.00,,,0.06,Rainwise IP-100,2013-03-16 17:59:00,
2013-03-16 14:04:00,22.3,11.0,29.83,West,270,2.0,5.0,60,0.00,,,0.06,Rainwise IP-100,2013-03-16 18:04:00,
2013-03-16 14:09:00,21.9,14.0,29.82,NW,315,0.0,5.0,63,0.00,,,0.06,Rainwise IP-100,2013-03-16 18:09:00,
2013-03-16 14:14:00,22.4,11.0,29.83,WNW,292,2.0,6.0,60,0.00,,,0.06,Rainwise IP-100,2013-03-16 18:14:00,
2013-03-16 14:19:00,22.6,11.0,29.83,NW,315,2.0,7.0,62,0.00,,,0.06,Rainwise IP-100,2013-03-16 18:19:00,
2013-03-16 14:24:00,22.7,11.0,29.83,West,270,2.0,4.0,62,0.00,,,0.06,Rainwise IP-100,2013-03-16 18:24:00,
2013-03-16 14:29:00,22.7,11.0,29.83,SSE,157,2.0,6.0,61,0.00,,,0.06,Rainwise IP-100,2013-03-16 18:29:00,
2013-03-16 14:34:00,22.8,11.0,29.82,North,360,0.0,4.0,61,0.00,,,0.06,Rainwise IP-100,2013-03-16 18:34:00,
2013-03-16 14:39:00,23.1,11.0,29.82,NW,315,2.0,6.0,59,0.00,,,0.06,Rainwise IP-100,2013-03-16 18:39:00,
2013-03-16 14:44:00,23.5,11.0,29.82,West,270,1.0,6.0,57,0.00,,,0.06,Rainwise IP-100,2013-03-16 18:44:00,
2013-03-16 14:49:00,23.5,14.0,29.82,North,360,6.0,6.0,59,0.00,,,0.06,Rainwise IP-100,2013-03-16 18:49:00,
2013-03-16 14:55:00,23.3,11.0,29.82,NNE,22,2.0,8.0,57,0.00,,,0.06,Rainwise IP-100,2013-03-16 18:55:00,
2013-03-16 15:00:00,23.1,11.0,29.82,North,360,2.0,6.0,58,0.00,,,0.06,Rainwise IP-100,2013-03-16 19:00:00,
2013-03-16 15:05:00,23.9,11.0,29.82,NNW,337,2.0,7.0,56,0.00,,,0.06,Rainwise IP-100,2013-03-16 19:05:00,
2013-03-16 15:10:00,23.6,11.0,29.82,SSW,202,2.0,7.0,54,0.00,,,0.06,Rainwise IP-100,2013-03-16 19:10:00,
2013-03-16 15:15:00,23.6,11.0,29.82,WNW,292,1.0,4.0,53,0.00,,,0.06,Rainwise IP-100,2013-03-16 19:15:00,
2013-03-16 15:20:00,23.7,11.0,29.82,WNW,292,1.0,5.0,54,0.00,,,0.06,Rainwise IP-100,2013-03-16 19:20:00,
2013-03-16 15:25:00,23.7,11.0,29.82,WSW,247,1.0,4.0,52,0.00,,,0.06,Rainwise IP-100,2013-03-16 19:25:00,
2013-03-16 15:30:00,23.5,11.0,29.81,West,270,1.0,4.0,53,0.00,,,0.06,Rainwise IP-100,2013-03-16 19:30:00,
2013-03-16 15:35:00,23.4,8.0,29.82,NW,315,2.0,7.0,54,0.00,,,0.06,Rainwise IP-100,2013-03-16 19:35:00,
2013-03-16 15:40:00,23.5,11.0,29.82,NW,315,1.0,5.0,54,0.00,,,0.06,Rainwise IP-100,2013-03-16 19:40:00,
2013-03-16 15:45:00,23.6,11.0,29.81,NNE,22,2.0,5.0,52,0.00,,,0.06,Rainwise IP-100,2013-03-16 19:45:00,
2013-03-16 15:50:00,23.7,11.0,29.81,SW,225,2.0,4.0,53,0.00,,,0.06,Rainwise IP-100,2013-03-16 19:50:00,
2013-03-16 15:56:00,23.8,11.0,29.81,NE,45,2.0,7.0,53,0.00,,,0.06,Rainwise IP-100,2013-03-16 19:56:00,
2013-03-16 16:01:00,24.1,11.0,29.81,NW,315,2.0,2.0,52,0.00,,,0.06,Rainwise IP-100,2013-03-16 20:01:00,
2013-03-16 16:08:00,23.8,11.0,29.82,SSW,202,2.0,4.0,55,0.00,,,0.06,Rainwise IP-100,2013-03-16 20:08:00,
2013-03-16 16:14:00,22.9,11.0,29.81,NW,315,4.0,5.0,56,0.00,,,0.06,Rainwise IP-100,2013-03-16 20:14:00,
2013-03-16 16:19:00,22.5,11.0,29.81,West,270,0.0,5.0,55,0.00,,,0.06,Rainwise IP-100,2013-03-16 20:19:00,
2013-03-16 16:24:00,22.9,11.0,29.81,North,360,1.0,4.0,55,0.00,,,0.06,Rainwise IP-100,2013-03-16 20:24:00,
2013-03-16 16:29:00,23.2,8.0,29.81,NW,315,1.0,2.0,54,0.00,,,0.06,Rainwise IP-100,2013-03-16 20:29:00,
2013-03-16 16:34:00,23.0,11.0,29.81,NW,315,1.0,3.0,56,0.00,,,0.06,Rainwise IP-100,2013-03-16 20:34:00,
2013-03-16 16:39:00,23.0,11.0,29.81,WSW,247,3.0,4.0,57,0.00,,,0.06,Rainwise IP-100,2013-03-16 20:39:00,
2013-03-16 16:44:00,22.4,11.0,29.82,NNW,337,3.0,6.0,58,0.00,,,0.06,Rainwise IP-100,2013-03-16 20:44:00,
2013-03-16 16:49:00,22.5,11.0,29.81,SW,225,1.0,4.0,57,0.00,,,0.06,Rainwise IP-100,2013-03-16 20:49:00,
2013-03-16 16:55:00,22.3,11.0,29.81,West,270,4.0,5.0,58,0.00,,,0.06,Rainwise IP-100,2013-03-16 20:55:00,
2013-03-16 17:00:00,22.2,11.0,29.82,SW,225,1.0,4.0,60,0.00,,,0.06,Rainwise IP-100,2013-03-16 21:00:00,
2013-03-16 17:05:00,22.2,11.0,29.82,NW,315,5.0,7.0,59,0.00,,,0.06,Rainwise IP-100,2013-03-16 21:05:00,
2013-03-16 17:10:00,21.9,11.0,29.82,NW,315,4.0,5.0,60,0.00,,,0.06,Rainwise IP-100,2013-03-16 21:10:00,
2013-03-16 17:15:00,21.9,11.0,29.81,West,270,1.0,4.0,60,0.00,,,0.06,Rainwise IP-100,2013-03-16 21:15:00,
2013-03-16 17:20:00,21.9,11.0,29.82,NW,315,2.0,3.0,61,0.00,,,0.06,Rainwise IP-100,2013-03-16 21:20:00,
2013-03-16 17:25:00,21.6,11.0,29.81,West,270,2.0,5.0,62,0.00,,,0.06,Rainwise IP-100,2013-03-16 21:25:00,
2013-03-16 17:30:00,21.3,11.0,29.81,NW,315,2.0,6.0,61,0.00,,,0.06,Rainwise IP-100,2013-03-16 21:30:00,
2013-03-16 17:35:00,21.2,11.0,29.82,West,270,2.0,4.0,62,0.00,,,0.06,Rainwise IP-100,2013-03-16 21:35:00,
2013-03-16 17:40:00,21.3,11.0,29.82,SSW,202,2.0,5.0,61,0.00,,,0.06,Rainwise IP-100,2013-03-16 21:40:00,
2013-03-16 17:45:00,21.2,11.0,29.82,WSW,247,2.0,6.0,62,0.00,,,0.06,Rainwise IP-100,2013-03-16 21:45:00,
2013-03-16 17:50:00,21.0,11.0,29.82,West,270,0.0,5.0,62,0.00,,,0.06,Rainwise IP-100,2013-03-16 21:50:00,
2013-03-16 17:56:00,21.1,11.0,29.82,SW,225,1.0,4.0,63,0.00,,,0.06,Rainwise IP-100,2013-03-16 21:56:00,
2013-03-16 18:01:00,20.9,11.0,29.82,West,270,0.0,4.0,62,0.00,,,0.06,Rainwise IP-100,2013-03-16 22:01:00,
2013-03-16 18:06:00,20.9,11.0,29.82,NW,315,1.0,2.0,62,0.00,,,0.06,Rainwise IP-100,2013-03-16 22:06:00,
2013-03-16 18:11:00,20.9,11.0,29.82,North,360,1.0,2.0,62,0.00,,,0.06,Rainwise IP-100,2013-03-16 22:11:00,
2013-03-16 18:16:00,20.8,11.0,29.83,NW,315,1.0,4.0,62,0.00,,,0.06,Rainwise IP-100,2013-03-16 22:16:00,
2013-03-16 18:21:00,20.7,11.0,29.83,WNW,292,1.0,4.0,61,0.00,,,0.06,Rainwise IP-100,2013-03-16 22:21:00,
2013-03-16 18:27:00,20.5,11.0,29.83,WNW,292,2.0,4.0,62,0.00,,,0.06,Rainwise IP-100,2013-03-16 22:27:00,
2013-03-16 18:33:00,20.3,11.0,29.82,SW,225,0.0,2.0,61,0.00,,,0.06,Rainwise IP-100,2013-03-16 22:33:00,
2013-03-16 18:38:00,20.2,11.0,29.82,SW,225,2.0,2.0,63,0.00,,,0.06,Rainwise IP-100,2013-03-16 22:38:00,
2013-03-16 18:43:00,20.1,11.0,29.82,SW,225,1.0,2.0,63,0.00,,,0.06,Rainwise IP-100,2013-03-16 22:43:00,
2013-03-16 18:48:00,19.9,11.0,29.82,SW,225,0.0,2.0,63,0.00,,,0.06,Rainwise IP-100,2013-03-16 22:48:00,
2013-03-16 18:53:00,19.7,11.0,29.83,NW,315,1.0,2.0,64,0.00,,,0.06,Rainwise IP-100,2013-03-16 22:53:00,
2013-03-16 18:59:00,19.5,11.0,29.83,NW,315,0.0,2.0,65,0.00,,,0.06,Rainwise IP-100,2013-03-16 22:59:00,
2013-03-16 19:04:00,19.3,11.0,29.83,West,270,1.0,2.0,64,0.00,,,0.06,Rainwise IP-100,2013-03-16 23:04:00,
2013-03-16 19:09:00,19.2,11.0,29.83,WNW,292,1.0,2.0,65,0.00,,,0.06,Rainwise IP-100,2013-03-16 23:09:00,
2013-03-16 19:14:00,18.9,14.0,29.83,NW,315,1.0,2.0,69,0.00,,,0.06,Rainwise IP-100,2013-03-16 23:14:00,
2013-03-16 19:19:00,18.7,14.0,29.83,NW,315,1.0,2.0,77,0.00,,,0.06,Rainwise IP-100,2013-03-16 23:19:00,
2013-03-16 19:24:00,18.5,16.0,29.84,NW,315,3.0,3.0,78,0.00,,,0.06,Rainwise IP-100,2013-03-16 23:24:00,
2013-03-16 19:29:00,18.2,14.0,29.84,NNW,337,2.0,3.0,79,0.00,,,0.06,Rainwise IP-100,2013-03-16 23:29:00,
2013-03-16 19:34:00,17.9,14.0,29.84,North,360,1.0,4.0,80,0.00,,,0.06,Rainwise IP-100,2013-03-16 23:34:00,
2013-03-16 19:39:00,17.8,14.0,29.84,North,360,1.0,2.0,80,0.00,,,0.06,Rainwise IP-100,2013-03-16 23:39:00,
2013-03-16 19:44:00,17.6,14.0,29.84,NNW,337,0.0,2.0,81,0.00,,,0.06,Rainwise IP-100,2013-03-16 23:44:00,
2013-03-16 19:49:00,17.3,14.0,29.84,NNW,337,1.0,2.0,82,0.00,,,0.06,Rainwise IP-100,2013-03-16 23:49:00,
2013-03-16 19:55:00,17.1,14.0,29.84,NW,315,0.0,2.0,82,0.00,,,0.06,Rainwise IP-100,2013-03-16 23:55:00,
2013-03-16 20:00:00,16.9,14.0,29.84,NW,315,0.0,0.0,82,0.00,,,0.06,Rainwise IP-100,2013-03-17 00:00:00,
2013-03-16 20:05:00,16.6,14.0,29.85,NW,315,0.0,2.0,83,0.00,,,0.06,Rainwise IP-100,2013-03-17 00:05:00,
2013-03-16 20:10:00,16.2,11.0,29.85,NW,315,1.0,2.0,82,0.00,,,0.06,Rainwise IP-100,2013-03-17 00:10:00,
2013-03-16 20:15:00,15.7,11.0,29.86,NW,315,0.0,2.0,83,0.00,,,0.06,Rainwise IP-100,2013-03-17 00:15:00,
2013-03-16 20:20:00,15.1,14.0,29.86,NW,315,1.0,1.0,85,0.00,,,0.06,Rainwise IP-100,2013-03-17 00:20:00,
2013-03-16 20:25:00,14.4,11.0,29.86,NW,315,1.0,1.0,84,0.00,,,0.06,Rainwise IP-100,2013-03-17 00:25:00,
2013-03-16 20:30:00,14.3,11.0,29.86,NW,315,0.0,2.0,83,0.00,,,0.06,Rainwise IP-100,2013-03-17 00:30:00,
2013-03-16 20:35:00,13.8,11.0,29.86,NW,315,1.0,2.0,84,0.00,,,0.06,Rainwise IP-100,2013-03-17 00:35:00,
2013-03-16 20:40:00,12.9,11.0,29.86,NW,315,2.0,2.0,86,0.00,,,0.06,Rainwise IP-100,2013-03-17 00:40:00,
2013-03-16 20:45:00,12.1,11.0,29.86,NW,315,1.0,2.0,89,0.00,,,0.06,Rainwise IP-100,2013-03-17 00:45:00,
2013-03-16 20:50:00,11.4,8.0,29.86,NW,315,2.0,2.0,90,0.00,,,0.06,Rainwise IP-100,2013-03-17 00:50:00,
2013-03-16 20:56:00,10.8,8.0,29.86,NW,315,0.0,2.0,91,0.00,,,0.06,Rainwise IP-100,2013-03-17 00:56:00,
2013-03-16 21:01:00,10.8,8.0,29.86,WNW,292,2.0,2.0,88,0.00,,,0.06,Rainwise IP-100,2013-03-17 01:01:00,
2013-03-16 21:06:00,11.3,8.0,29.86,West,270,0.0,2.0,87,0.00,,,0.06,Rainwise IP-100,2013-03-17 01:06:00,
2013-03-16 21:11:00,11.4,8.0,29.87,West,270,0.0,2.0,87,0.00,,,0.06,Rainwise IP-100,2013-03-17 01:11:00,
2013-03-16 21:16:00,11.3,8.0,29.87,West,270,0.0,2.0,87,0.00,,,0.06,Rainwise IP-100,2013-03-17 01:16:00,
2013-03-16 21:22:00,11.2,8.0,29.87,WNW,292,0.0,2.0,87,0.00,,,0.06,Rainwise IP-100,2013-03-17 01:22:00,
2013-03-16 21:28:00,11.3,8.0,29.87,SW,225,0.0,2.0,86,0.00,,,0.06,Rainwise IP-100,2013-03-17 01:28:00,
2013-03-16 21:33:00,10.9,8.0,29.87,WNW,292,2.0,2.0,86,0.00,,,0.06,Rainwise IP-100,2013-03-17 01:33:00,
2013-03-16 21:38:00,10.4,8.0,29.88,WNW,292,1.0,2.0,87,0.00,,,0.06,Rainwise IP-100,2013-03-17 01:38:00,
2013-03-16 21:43:00,10.2,8.0,29.88,WNW,292,1.0,2.0,88,0.00,,,0.06,Rainwise IP-100,2013-03-17 01:43:00,
2013-03-16 21:48:00,9.8,8.0,29.89,WNW,292,1.0,2.0,89,0.00,,,0.06,Rainwise IP-100,2013-03-17 01:48:00,
2013-03-16 21:53:00,9.2,8.0,29.89,WNW,292,0.0,2.0,89,0.00,,,0.06,Rainwise IP-100,2013-03-17 01:53:00,
2013-03-16 21:59:00,8.6,8.0,29.88,WNW,292,0.0,0.0,91,0.00,,,0.06,Rainwise IP-100,2013-03-17 01:59:00,
2013-03-16 22:04:00,7.9,8.0,29.89,WNW,292,2.0,2.0,92,0.00,,,0.06,Rainwise IP-100,2013-03-17 02:04:00,
2013-03-16 22:09:00,7.5,8.0,29.89,WNW,292,1.0,2.0,92,0.00,,,0.06,Rainwise IP-100,2013-03-17 02:09:00,
2013-03-16 22:14:00,7.1,8.0,29.89,WNW,292,0.0,1.0,92,0.00,,,0.06,Rainwise IP-100,2013-03-17 02:14:00,
2013-03-16 22:19:00,6.6,8.0,29.89,WNW,292,0.0,0.0,92,0.00,,,0.06,Rainwise IP-100,2013-03-17 02:19:00,
2013-03-16 22:24:00,6.5,8.0,29.89,WNW,292,0.0,2.0,92,0.00,,,0.06,Rainwise IP-100,2013-03-17 02:24:00,
2013-03-16 22:29:00,6.4,8.0,29.89,WNW,292,0.0,2.0,92,0.00,,,0.06,Rainwise IP-100,2013-03-17 02:29:00,
2013-03-16 22:34:00,6.1,8.0,29.89,WNW,292,0.0,0.0,92,0.00,,,0.06,Rainwise IP-100,2013-03-17 02:34:00,
2013-03-16 22:39:00,5.6,8.0,29.89,WNW,292,0.0,2.0,92,0.00,,,0.06,Rainwise IP-100,2013-03-17 02:39:00,
2013-03-16 22:44:00,5.2,8.0,29.90,WNW,292,0.0,2.0,92,0.00,,,0.06,Rainwise IP-100,2013-03-17 02:44:00,
2013-03-16 22:49:00,5.1,8.0,29.90,WNW,292,0.0,2.0,92,0.00,,,0.06,Rainwise IP-100,2013-03-17 02:49:00,
2013-03-16 22:54:00,4.9,8.0,29.90,WNW,292,0.0,0.0,92,0.00,,,0.06,Rainwise IP-100,2013-03-17 02:54:00,
2013-03-16 23:00:00,4.8,8.0,29.91,WNW,292,1.0,1.0,92,0.00,,,0.06,Rainwise IP-100,2013-03-17 03:00:00,
2013-03-16 23:05:00,4.6,8.0,29.91,WNW,292,1.0,2.0,92,0.00,,,0.06,Rainwise IP-100,2013-03-17 03:05:00,
2013-03-16 23:10:00,4.4,4.0,29.91,WNW,292,1.0,2.0,92,0.00,,,0.06,Rainwise IP-100,2013-03-17 03:10:00,
2013-03-16 23:15:00,4.3,4.0,29.90,WNW,292,0.0,2.0,92,0.00,,,0.06,Rainwise IP-100,2013-03-17 03:15:00,
2013-03-16 23:20:00,4.3,4.0,29.91,WNW,292,1.0,2.0,92,0.00,,,0.06,Rainwise IP-100,2013-03-17 03:20:00,
2013-03-16 23:25:00,4.1,4.0,29.91,WNW,292,2.0,2.0,92,0.00,,,0.06,Rainwise IP-100,2013-03-17 03:25:00,
2013-03-16 23:30:00,3.9,4.0,29.91,WNW,292,1.0,2.0,91,0.00,,,0.06,Rainwise IP-100,2013-03-17 03:30:00,
2013-03-16 23:35:00,4.1,4.0,29.91,WNW,292,1.0,1.0,92,0.00,,,0.06,Rainwise IP-100,2013-03-17 03:35:00,
2013-03-16 23:40:00,3.9,4.0,29.91,WNW,292,0.0,2.0,91,0.00,,,0.06,Rainwise IP-100,2013-03-17 03:40:00,
2013-03-16 23:45:00,4.1,4.0,29.91,WNW,292,0.0,0.0,92,0.00,,,0.06,Rainwise IP-100,2013-03-17 03:45:00,
2013-03-16 23:50:00,4.3,4.0,29.92,WNW,292,0.0,2.0,92,0.00,,,0.06,Rainwise IP-100,2013-03-17 03:50:00,
2013-03-16 23:55:00,4.1,4.0,29.91,WNW,292,0.0,2.0,92,0.00,,,0.06,Rainwise IP-100,2013-03-17 03:55:00,